Вернуться в каталог

FENGYUN 1C DEB

АктивенPO
NORAD 30110·DEBRIS·🇨🇳 China

Запущен May 10, 1999 с Taiyuan Satellite Launch Center

Loading…

Ближайшие Пролёты (ближайшие 24 часа)

TLE

СвежийSource: Space-Track

Эпоха: Sep 14, 2026, 17:27 UTC

1 30110U 99025RP  26257.72743877  .00000083  00000-0  13807-3 0  9990
2 30110  98.9114 345.5491 0267492   2.1592 358.0639 13.56349431972561

Отслеживайте FENGYUN 1C DEB в реальном времени с AllMySat

Download on the App Store